Regional Weather Roundup
Issued by NWS Sterling, VA

Home | Current Version | Previous Version | Graphics & Text | Print | Product List | Glossary On
Versions: 1 2 3 4 5 6 7 8 9 10 11 12 13 14 15 16 17 18 19 20 21 22 23 24 25 26 27 28 29 30 31 32 33 34 35 36 37 38 39 40 41 42 43 44 45 46 47 48 49 50
576
ASUS41 KLWX 221311
RWRLWX

REGIONAL WEATHER ROUNDUP
NATIONAL WEATHER SERVICE BALTIMORE MD/WASHINGTON DC
900 AM EDT SAT JUL 22 2017

Note: "FAIR" indicates few or no clouds below 12,000 feet
with no significant weather and/or obstructions to visibility.
 TC=TEMPERATURE CELSIUS

 * =Non NWS site. Station does not report precipitation (e.g. rain,
    snow, etc.), thunder, or fog.

DCZ001-MDZ009-015-VAZ040>042-051-053>054-221400-
WASHINGTON METRO

CITY           SKY/WX    TMP DP  RH WIND       PRES   REMARKS
WASHINGTON NAT CLOUDY    84  74  71 N6        29.92R HX  91
DULLES         PTSUNNY   81  70  69 NW6       29.93R
ANDREWS AFB    SUNNY     84  71  65 N6        29.91R
FT BELVOIR     CLOUDY    84  71  65 NW6       29.92R
QUANTICO       PTSUNNY   85  73  67 NW6       29.93R HX  91
COLLEGE PARK*  MOSUNNY   82  71  71 NW6       29.90S
LEESBURG*      CLOUDY    82  75  78 NW7       29.94F
MANASSAS*      CLOUDY    83  72  69 N8        29.94R
GAITHERSBURG*  SUNNY     80  73  79 NW6       29.94S

$$

MDZ006>007-011-014-221400-
BALTIMORE METRO

CITY           SKY/WX    TMP DP  RH WIND       PRES   REMARKS
BWI AIRPORT    CLOUDY    84  73  69 N5        29.90R HX  90
MD SCIENCE CTR   N/A     85  72  65 MISG      29.90R HX  91
MARTIN STATE   MOSUNNY   82  75  78 NW3       29.91R
ANNAPOLIS      SUNNY     81  77  88 N6        29.89S
FORT MEADE*    SUNNY     81  73  78 CALM      29.93S

$$

MDZ012-015-019>023-221400-
MARYLAND EASTERN SHORE

CITY           SKY/WX    TMP DP  RH WIND       PRES   REMARKS
OCEAN CITY     SUNNY     79  75  87 VRB6      29.90R
SALISBURY      MOSUNNY   84  79  84 VRB3      29.89  HX  96
BAY BRIDGE AP* MOSUNNY   84  75  74 CALM      29.90R HX  92
EASTON*        MOSUNNY   82  75  78 CALM      29.93S

$$

MDZ017>025-221400-
SOUTHERN MARYLAND

CITY           SKY/WX    TMP DP  RH WIND       PRES   REMARKS
PATUXENT RIVER PTSUNNY   83  76  79 NW9       29.90R HX  91
ST INIGOES     SUNNY     83  76  79 W6        29.89S HX  91
LEONARDTOWN*   MOSUNNY   81  73  78 W5        29.92S

$$

MDZ003>005-221400-
NORTH CENTRAL MARYLAND

CITY           SKY/WX    TMP DP  RH WIND       PRES   REMARKS
FREDERICK*     SUNNY     81  75  83 CALM      29.95R
HAGERSTOWN APT CLOUDY    79  72  79 S3        29.95R
WESTMINSTER*   CLOUDY    81  72  74 NE5       29.93F

$$

MDZ501>502-221400-
WESTERN MARYLAND

CITY           SKY/WX    TMP DP  RH WIND       PRES   REMARKS
OAKLAND*       CLOUDY    66  66 100 SW6       30.04R
CUMBERLAND*    CLOUDY    73  72  94 CALM      30.01S

$$

VAZ025>031-221400-
SHENANDOAH VALLEY

CITY           SKY/WX    TMP DP  RH WIND       PRES   REMARKS
WINCHESTER*    CLOUDY    75  68  78 CALM      29.96S
FRONT ROYAL*   CLOUDY    75  70  83 SW5       29.97R
LURAY*         MOSUNNY   73  72  94 CALM      29.99R
NEW MARKET*    CLOUDY    76  71  85 CALM      29.98S
STAUNTON*      CLOUDY    71  69  94 CALM      30.04R
WAYNESBORO*    CLOUDY    73  70  91 CALM      30.03R

$$

WVZ021-048>050-054>055-221400-
EASTERN WEST VIRGINIA PANHANDLE

CITY           SKY/WX    TMP DP  RH WIND       PRES   REMARKS
MARTINSBURG    CLOUDY    77  72  84 SW6       29.94S
PETERSBURG*    CLOUDY    72  69  90 CALM      29.99F

$$

VAZ036>039-050-221400-
CENTRAL FOOTHILLS

CITY           SKY/WX    TMP DP  RH WIND       PRES   REMARKS
CHARLOTTESVILL PTSUNNY   81  71  71 CALM      29.96R
CULPEPER*      CLOUDY    81  72  72 CALM      29.95R
ORANGE*        MOSUNNY   81  70  69 CALM      29.95R
GORDONSVILLE*  MOSUNNY   82  72  72 CALM      29.95R
WARRENTON*     MOSUNNY   84  69  59 W3        29.94R

$$

VAZ055>057-221400-
NORTH AND CENTRAL PIEDMONT

CITY           SKY/WX    TMP DP  RH WIND       PRES   REMARKS
FREDERICKSBRG* SUNNY     82  73  74 CALM      29.93R
STAFFORD*      MOSUNNY   81  75  80 W5        29.97R

$$

NCZ024-NYZ072-PAZ021-071-VAZ022-071-221400-
OTHER REGIONAL OBSERVATIONS

CITY           SKY/WX    TMP DP  RH WIND       PRES   REMARKS
NEW YORK CITY  SUNNY     81  63  54 CALM      29.92S
PHILADELPHIA   PTSUNNY   85  67  54 E9        29.90R
PITTSBURGH     CLOUDY    76  72  87 S6        29.93F FOG
ROANOKE        CLOUDY    80  71  74 VRB5      30.04R
RICHMOND       CLOUDY    86  71  60 NW3       29.94R HX  91
RALEIGH        MOSUNNY   83  74  74 SW9       29.99S

$$

ANZ530>537-221400-
MARINE OBSERVATIONS

STATION/POSITION TIME  TEMP    WIND        PRES
                       AIR SEA DIR/SP/G
                 (UTC) (F)     (DEG/KT/KT) (MB)
THOMAS PT LIGHT  1300   82 84  350/  7/  8   N/A
BALT KEY BRIDGE  1248   82      30/  7/  9 1012.3R
COVE POINT       1248   81     340/ 12/ 14 1012.9R
LEWISETTA        1248   81 85  290/  7/  8 1012.7R
SOLOMONS ISLAND  1248   82 85  320/  6/ 10   N/A
PINEY POINT      1248          320/ 11/ 12   N/A

$$





USA.gov is the U.S. government's official web portal to all federal, state and local government web resources and services.